| time (UTC) | temp F | wind direction | speed MPH | gust MPH | rain 1hr in | rain 24hr in | rain mn in | humidity % | barometer mb |
| 20260504020320 | 87 | 319 | 0.0 | 3.0 | 0.00 | 0.00 | 0.00 | 36 | 1007.7 |
| 20260504014827 | 88 | 315 | 1.0 | 4.0 | 0.00 | 0.00 | 0.00 | 36 | 1007.8 |
| 20260504013356 | 88 | 331 | 2.0 | 7.0 | 0.00 | 0.00 | 0.00 | 35 | 1007.8 |
| 20260504011825 | 88 | 323 | 1.0 | 7.0 | 0.00 | 0.00 | 0.00 | 36 | 1007.9 |
| 20260504010329 | 89 | 319 | 2.0 | 8.0 | 0.00 | 0.00 | 0.00 | 36 | 1008.0 |
| 20260504004858 | 90 | 314 | 4.0 | 7.0 | 0.00 | 0.00 | 0.00 | 33 | 1008.0 |
| 20260504003324 | 90 | 326 | 5.0 | 9.0 | 0.00 | 0.00 | 0.00 | 35 | 1008.0 |
| 20260504001833 | 90 | 331 | 2.0 | 7.0 | 0.00 | 0.00 | 0.00 | 34 | 1008.2 |
| 20260504000328 | 89 | 294 | 2.0 | 8.0 | 0.00 | 0.00 | 0.00 | 36 | 1008.3 |
| 20260503234832 | 89 | 263 | 1.0 | 7.0 | 0.00 | 0.00 | 0.00 | 34 | 1008.3 |
| 20260503233321 | 89 | 342 | 2.0 | 8.0 | 0.00 | 0.00 | 0.00 | 36 | 1008.5 |
| 20260503231855 | 90 | 317 | 6.0 | 11.0 | 0.00 | 0.00 | 0.00 | 33 | 1008.7 |
| 20260503230345 | 90 | 325 | 2.0 | 7.0 | 0.00 | 0.00 | 0.00 | 38 | 1008.8 |
| 20260503224826 | 89 | 354 | 1.0 | 7.0 | 0.00 | 0.00 | 0.00 | 39 | 1009.2 |
| 20260503223335 | 88 | 308 | 2.0 | 8.0 | 0.00 | 0.00 | 0.00 | 42 | 1009.3 |
| 20260503221822 | 88 | 278 | 2.0 | 5.0 | 0.00 | 0.00 | 0.00 | 43 | 1009.6 |
| 20260503220330 | 88 | 344 | 4.0 | 10.0 | 0.00 | 0.00 | 0.00 | 46 | 1009.7 |
| 20260503214839 | 87 | 349 | 2.0 | 5.0 | 0.00 | 0.00 | 0.00 | 45 | 1009.9 |
| 20260503213323 | 86 | 339 | 3.0 | 9.0 | 0.00 | 0.00 | 0.00 | 47 | 1010.2 |
| 20260503211854 | 85 | 352 | 4.0 | 9.0 | 0.00 | 0.00 | 0.00 | 47 | 1010.3 |
| 20260503210321 | 84 | 339 | 5.0 | 10.0 | 0.00 | 0.00 | 0.00 | 48 | 1010.4 |
| 20260503204828 | 83 | 333 | 6.0 | 10.0 | 0.00 | 0.00 | 0.00 | 50 | 1010.5 |
| 20260503203338 | 83 | 352 | 6.0 | 9.0 | 0.00 | 0.00 | 0.00 | 49 | 1010.7 |
| 20260503201840 | 82 | 330 | 7.0 | 10.0 | 0.00 | 0.00 | 0.00 | 52 | 1010.9 |
| 20260503200320 | 81 | 327 | 6.0 | 12.0 | 0.00 | 0.00 | 0.00 | 52 | 1011.1 |
| 20260503194823 | 79 | 327 | 4.0 | 10.0 | 0.00 | 0.00 | 0.00 | 54 | 1011.2 |
| 20260503193348 | 79 | 321 | 2.0 | 10.0 | 0.00 | 0.00 | 0.00 | 55 | 1011.3 |
| 20260503191834 | 78 | 344 | 3.0 | 7.0 | 0.00 | 0.00 | 0.00 | 56 | 1011.5 |
| 20260503190357 | 77 | 321 | 2.0 | 10.0 | 0.00 | 0.00 | 0.00 | 59 | 1011.6 |
| 20260503184825 | 75 | 327 | 2.0 | 8.0 | 0.00 | 0.00 | 0.00 | 63 | 1011.9 |
| 20260503183333 | 74 | 344 | 5.0 | 9.0 | 0.00 | 0.00 | 0.00 | 62 | 1012.0 |
| 20260503181837 | 73 | 4 | 4.0 | 8.0 | 0.00 | 0.00 | 0.00 | 64 | 1012.2 |
| 20260503180326 | 72 | 1 | 7.0 | 9.0 | 0.00 | 0.00 | 0.00 | 65 | 1012.2 |
| 20260503174832 | 71 | 326 | 7.0 | 11.0 | 0.00 | 0.00 | 0.00 | 65 | 1012.3 |
| 20260503173339 | 70 | 319 | 5.0 | 10.0 | 0.00 | 0.00 | 0.00 | 68 | 1012.2 |
| 20260503171822 | 68 | 352 | 3.0 | 8.0 | 0.00 | 0.00 | 0.00 | 72 | 1012.1 |
| 20260503170326 | 67 | 336 | 5.0 | 7.0 | 0.00 | 0.00 | 0.00 | 73 | 1012.4 |
| 20260503150350 | 58 | 350 | 3.0 | 4.0 | 0.00 | 0.00 | 0.00 | 91 | 1012.6 |
| 20260503130329 | 54 | 323 | 3.0 | 5.0 | 0.00 | 0.00 | 0.00 | 93 | 1011.9 |
| 20260503110336 | 57 | 341 | 1.0 | 3.0 | 0.00 | 0.00 | 0.00 | 88 | 1012.1 |
| 20260503090343 | 57 | 319 | 2.0 | 6.0 | 0.00 | 0.00 | 0.00 | 90 | 1012.4 |
| 20260503080321 | 57 | 315 | 0.0 | 1.0 | 0.00 | 0.00 | 0.00 | 88 | 1012.5 |
| 20260503071826 | 58 | 316 | 1.0 | 3.0 | 0.00 | 0.00 | 0.00 | 87 | 1012.9 |
| 20260503070335 | 58 | 317 | 2.0 | 3.0 | 0.00 | 0.00 | 0.00 | 87 | 1012.9 |
| 20260503060334 | 58 | 317 | 2.0 | 7.0 | 0.00 | 0.00 | 0.00 | 88 | 1012.8 |
| 20260503054826 | 58 | 317 | 0.0 | 1.0 | 0.00 | 0.00 | 0.00 | 87 | 1012.8 |
| 20260503053339 | 58 | 317 | 2.0 | 3.0 | 0.00 | 0.00 | 0.00 | 86 | 1013.0 |
| 20260503051849 | 59 | 317 | 0.0 | 1.0 | 0.00 | 0.00 | 0.00 | 85 | 1013.0 |
| 20260503050338 | 59 | 317 | 1.0 | 2.0 | 0.00 | 0.00 | 0.00 | 84 | 1013.0 |
| 20260503044824 | 60 | 317 | 1.0 | 3.0 | 0.00 | 0.00 | 0.00 | 83 | 1013.0 |
| 20260503043329 | 60 | 317 | 0.0 | 2.0 | 0.00 | 0.00 | 0.00 | 82 | 1012.8 |
| 20260503041841 | 61 | 317 | 3.0 | 6.0 | 0.00 | 0.00 | 0.00 | 81 | 1012.8 |
| 20260503040331 | 62 | 322 | 1.0 | 3.0 | 0.00 | 0.00 | 0.00 | 80 | 1012.8 |
| 20260503034820 | 62 | 301 | 1.0 | 4.0 | 0.00 | 0.00 | 0.00 | 79 | 1012.5 |
| 20260503033328 | 62 | 277 | 3.0 | 5.0 | 0.00 | 0.00 | 0.00 | 78 | 1012.1 |
| 20260503031834 | 63 | 3 | 3.0 | 6.0 | 0.00 | 0.00 | 0.00 | 76 | 1012.2 |
| 20260503030338 | 63 | 306 | 2.0 | 3.0 | 0.00 | 0.00 | 0.00 | 77 | 1012.1 |
| 20260503024829 | 63 | 305 | 1.0 | 5.0 | 0.00 | 0.00 | 0.00 | 77 | 1011.9 |
| 20260503021826 | 64 | 358 | 0.0 | 1.0 | 0.00 | 0.00 | 0.00 | 76 | 1012.3 |